Weather History for KCBE - March, 2014

Change the Weather History Date:

Wednesday, March 26, 2014

  Actual Average (KMRB) Record (KMRB)
Temperature  
Mean Temperature 28 °F 46 °F  
Max Temperature 33 °F 56 °F 86 °F (1939)
Min Temperature 24 °F 35 °F 17 °F (1940)
Degree Days  
Heating Degree Days 36 20  
Month to date heating degree days 622  
Since 1 July heating degree days 4578  
Cooling Degree Days 0 0  
Month to date cooling degree days 0  
Year to date cooling degree days 0  
Moisture  
Dew Point 10 °F    
Average Humidity 48    
Maximum Humidity 86    
Minimum Humidity 30    
Precipitation  
Precipitation 0.00 in 0.13 in 1.23 in (1978)
Month to date precipitation 2.90  
Year to date precipitation 7.68  
Sea Level Pressure  
Sea Level Pressure 30.19 in    
Wind  
Wind Speed 11 mph (NW)    
Max Wind Speed 21 mph    
Max Gust Speed 32 mph    
Visibility 9 miles    
Events      
T = Trace of Precipitation, MM = Missing Value Source: NWS Daily Summary

Daily Weather History Graph

Daily Weather History Graph

Search for Another Location

Airport or City:

Trip Planner

Search our weather history database for the weather conditions in past years. The results will help you decide how hot, cold, wet, or windy it might be!

Date:

Astronomy

Mar. 26, 2014 Rise Set
Actual Time 7:08 AM EDT 7:33 PM EDT
Civil Twilight 6:41 AM EDT 8:00 PM EDT
Nautical Twilight 6:10 AM EDT 8:31 PM EDT
Astronomical Twilight 5:37 AM EDT 9:04 PM EDT
Moon 4:15 AM EDT (3/26) 3:10 PM EDT (3/26)
Length of Visible Light 13h 18m
Length of Day
12h 24m
Waning Crescent, 22% of the Moon is Illuminated
Mar 26
Waning Crescent
Mar 30
New
Apr 7
First Quarter
Apr 15
Full
Apr 22
Last Quarter

Hourly Weather History & Observations

Time (EDT) Temp. Windchill Dew Point Humidity Pressure Visibility Wind Dir Wind Speed Gust Speed Precip Events Conditions
12:14 AM 32.0 °F 28.7 °F 21.2 °F 64% 29.96 in 10.0 mi WNW 3.5 mph - N/A   Scattered Clouds
12:34 AM 32.0 °F 20.8 °F 21.2 °F 64% 29.97 in 10.0 mi NW 17.3 mph 28.8 mph N/A   Scattered Clouds
12:54 AM 32.0 °F 20.5 °F 19.4 °F 60% 29.99 in 10.0 mi NW 18.4 mph 26.5 mph N/A   Scattered Clouds
1:14 AM 30.2 °F 17.8 °F 19.4 °F 64% 29.99 in 10.0 mi NNW 19.6 mph 27.6 mph N/A   Clear
1:34 AM 30.2 °F 18.9 °F 17.6 °F 60% 30.00 in 10.0 mi NNW 16.1 mph 21.9 mph N/A   Clear
1:54 AM 30.2 °F 19.8 °F 17.6 °F 60% 30.02 in 10.0 mi NNW 13.8 mph 24.2 mph N/A   Scattered Clouds
2:15 AM 30.2 °F 19.3 °F 17.6 °F 60% 30.02 in 10.0 mi NNW 15.0 mph 20.7 mph N/A   Mostly Cloudy
2:35 AM 30.2 °F 19.8 °F 19.4 °F 64% 30.02 in 3.0 mi NW 13.8 mph 24.2 mph N/A   Mostly Cloudy
2:55 AM 28.4 °F 18.5 °F 23.0 °F 80% 30.03 in 0.5 mi NNW 11.5 mph 17.3 mph N/A   Overcast
3:15 AM 26.6 °F 20.0 °F 23.0 °F 86% 30.03 in 5.0 mi NNW 5.8 mph - N/A   Overcast
3:35 AM 26.6 °F 17.5 °F 23.0 °F 86% 30.03 in 0.5 mi NNW 9.2 mph - N/A   Overcast
3:55 AM 26.6 °F 20.0 °F 23.0 °F 86% 30.03 in 7.0 mi North 5.8 mph - N/A   Mostly Cloudy
4:15 AM 26.6 °F 21.2 °F 23.0 °F 86% 30.04 in 2.0 mi North 4.6 mph - N/A   Overcast
4:35 AM 26.6 °F - 21.2 °F 80% 30.04 in 10.0 mi Calm Calm - N/A   Scattered Clouds
4:55 AM 26.6 °F 19.1 °F 19.4 °F 74% 30.05 in 10.0 mi West 6.9 mph - N/A   Scattered Clouds
5:15 AM 26.6 °F 20.0 °F 17.6 °F 69% 30.05 in 10.0 mi NW 5.8 mph - N/A   Scattered Clouds
5:35 AM 26.6 °F 21.2 °F 17.6 °F 69% 30.06 in 10.0 mi WNW 4.6 mph - N/A   Scattered Clouds
5:55 AM 26.6 °F 18.2 °F 14.0 °F 59% 30.07 in 10.0 mi West 8.1 mph 20.7 mph N/A   Clear
6:15 AM 26.6 °F 16.2 °F 17.6 °F 69% 30.08 in 3.0 mi NW 11.5 mph 17.3 mph N/A   Mostly Cloudy
6:35 AM 26.6 °F 15.7 °F 17.6 °F 69% 30.09 in 5.0 mi WNW 12.7 mph 19.6 mph N/A   Overcast
6:55 AM 26.6 °F 16.8 °F 17.6 °F 69% 30.10 in 3.0 mi NNW 10.4 mph - N/A   Overcast
7:15 AM 24.8 °F 12.4 °F 17.6 °F 74% 30.11 in 2.0 mi NW 15.0 mph 24.2 mph N/A   Overcast
7:35 AM 26.6 °F 14.7 °F 12.2 °F 55% 30.13 in 7.0 mi NW 15.0 mph 24.2 mph N/A   Scattered Clouds
7:55 AM 26.6 °F 15.2 °F 12.2 °F 55% 30.14 in 10.0 mi NW 13.8 mph 19.6 mph N/A   Clear
8:15 AM 26.6 °F 14.3 °F 12.2 °F 55% 30.16 in 7.0 mi NW 16.1 mph 29.9 mph N/A   Scattered Clouds
8:35 AM 24.8 °F 11.9 °F 10.4 °F 54% 30.18 in 10.0 mi NW 16.1 mph 27.6 mph N/A   Scattered Clouds
8:55 AM 24.8 °F 11.9 °F 10.4 °F 54% 30.19 in 10.0 mi NNW 16.1 mph 25.3 mph N/A   Scattered Clouds
9:15 AM 24.8 °F 14.0 °F 10.4 °F 54% 30.21 in 10.0 mi NW 11.5 mph 21.9 mph N/A   Clear
9:35 AM 24.8 °F 11.9 °F 6.8 °F 46% 30.22 in 7.0 mi WNW 16.1 mph 24.2 mph N/A   Clear
9:55 AM 24.8 °F 10.3 °F 3.2 °F 40% 30.22 in 10.0 mi NW 20.7 mph 28.8 mph N/A   Clear
10:15 AM 24.8 °F 11.5 °F 5.0 °F 43% 30.23 in 10.0 mi North 17.3 mph 29.9 mph N/A   Scattered Clouds
10:35 AM 24.8 °F 13.4 °F 5.0 °F 43% 30.25 in 10.0 mi NNW 12.7 mph 26.5 mph N/A   Mostly Cloudy
10:56 AM 24.8 °F 13.4 °F 6.8 °F 46% 30.25 in 10.0 mi NNW 12.7 mph 23.0 mph N/A   Mostly Cloudy
11:16 AM 26.6 °F 16.8 °F 6.8 °F 43% 30.25 in 10.0 mi North 10.4 mph 18.4 mph N/A   Scattered Clouds
11:36 AM 26.6 °F 14.7 °F 6.8 °F 43% 30.25 in 10.0 mi NNW 15.0 mph 24.2 mph N/A   Scattered Clouds
11:56 AM 26.6 °F 15.7 °F 3.2 °F 37% 30.25 in 10.0 mi NNW 12.7 mph 28.8 mph N/A   Scattered Clouds
12:16 PM 28.4 °F 20.4 °F 5.0 °F 37% 30.26 in 10.0 mi North 8.1 mph 24.2 mph N/A   Scattered Clouds
12:36 PM 28.4 °F 19.1 °F 3.2 °F 34% 30.26 in 10.0 mi NW 10.4 mph 24.2 mph N/A   Scattered Clouds
12:56 PM 28.4 °F 20.4 °F 3.2 °F 34% 30.25 in 10.0 mi NW 8.1 mph 18.4 mph N/A   Scattered Clouds
1:16 PM 30.2 °F 20.8 °F 6.8 °F 37% 30.26 in 10.0 mi NNW 11.5 mph 27.6 mph N/A   Clear
1:36 PM 30.2 °F 20.2 °F 5.0 °F 34% 30.25 in 10.0 mi NNW 12.7 mph 23.0 mph N/A   Clear
1:56 PM 30.2 °F 18.5 °F 5.0 °F 34% 30.25 in 10.0 mi NNW 17.3 mph 27.6 mph N/A   Clear
2:16 PM 32.0 °F 20.5 °F 5.0 °F 32% 30.25 in 10.0 mi WSW 18.4 mph 27.6 mph N/A   Clear
2:36 PM 32.0 °F 25.6 °F 5.0 °F 32% 30.25 in 10.0 mi NW 6.9 mph 32.2 mph N/A   Scattered Clouds
2:56 PM 32.0 °F 22.1 °F 5.0 °F 32% 30.23 in 10.0 mi West 13.8 mph 24.2 mph N/A   Clear
3:16 PM 32.0 °F 24.2 °F 5.0 °F 32% 30.23 in 10.0 mi NNW 9.2 mph 28.8 mph N/A   Clear
3:36 PM 32.0 °F 24.2 °F 5.0 °F 32% 30.23 in 10.0 mi WNW 9.2 mph 19.6 mph N/A   Clear
3:56 PM 32.0 °F 23.6 °F 5.0 °F 32% 30.23 in 10.0 mi NW 10.4 mph 16.1 mph N/A   Clear
4:16 PM 32.0 °F 21.2 °F 5.0 °F 32% 30.24 in 10.0 mi NNW 16.1 mph 24.2 mph N/A   Clear
4:36 PM 32.0 °F 22.1 °F 5.0 °F 32% 30.24 in 10.0 mi NW 13.8 mph 25.3 mph N/A   Clear
4:56 PM 33.8 °F 24.8 °F 5.0 °F 30% 30.23 in 10.0 mi NNW 12.7 mph 21.9 mph N/A   Clear
5:16 PM 33.8 °F 24.3 °F 5.0 °F 30% 30.23 in 10.0 mi NW 13.8 mph 19.6 mph N/A   Clear
5:36 PM 33.8 °F 24.8 °F 5.0 °F 30% 30.23 in 10.0 mi NW 12.7 mph 26.5 mph N/A   Clear
5:56 PM 32.0 °F 22.1 °F 5.0 °F 32% 30.25 in 10.0 mi NW 13.8 mph 25.3 mph N/A   Clear
6:16 PM 32.0 °F 24.8 °F 5.0 °F 32% 30.25 in 10.0 mi NW 8.1 mph 21.9 mph N/A   Clear
6:36 PM 32.0 °F 23.6 °F 5.0 °F 32% 30.25 in 10.0 mi WNW 10.4 mph 21.9 mph N/A   Clear
6:56 PM 32.0 °F 22.5 °F 5.0 °F 32% 30.26 in 10.0 mi NW 12.7 mph 24.2 mph N/A   Clear
7:17 PM 32.0 °F 22.5 °F 5.0 °F 32% 30.27 in 10.0 mi NW 12.7 mph 18.4 mph N/A   Clear
7:37 PM 32.0 °F 25.6 °F 5.0 °F 32% 30.27 in 10.0 mi WNW 6.9 mph - N/A   Clear
7:57 PM 32.0 °F 28.7 °F 5.0 °F 32% 30.28 in 10.0 mi WNW 3.5 mph - N/A   Clear
8:17 PM 30.2 °F 25.4 °F 5.0 °F 34% 30.29 in 10.0 mi West 4.6 mph - N/A   Clear
8:37 PM 30.2 °F 22.6 °F 5.0 °F 34% 30.30 in 10.0 mi NNW 8.1 mph - N/A   Clear
8:57 PM 30.2 °F 26.7 °F 5.0 °F 34% 30.30 in 10.0 mi WSW 3.5 mph - N/A   Clear
9:17 PM 30.2 °F 26.7 °F 5.0 °F 34% 30.31 in 10.0 mi West 3.5 mph - N/A   Clear
9:37 PM 30.2 °F 26.7 °F 6.8 °F 37% 30.31 in 10.0 mi North 3.5 mph - N/A   Clear
9:57 PM 30.2 °F 25.4 °F 6.8 °F 37% 30.31 in 10.0 mi NW 4.6 mph - N/A   Clear
10:17 PM 28.4 °F - 8.6 °F 43% 30.32 in 10.0 mi Calm Calm - N/A   Clear
10:37 PM 28.4 °F - 6.8 °F 40% 30.32 in 10.0 mi Calm Calm - N/A   Clear
10:57 PM 28.4 °F 24.6 °F 8.6 °F 43% 30.32 in 10.0 mi NE 3.5 mph - N/A   Clear
11:17 PM 28.4 °F - 8.6 °F 43% 30.32 in 10.0 mi Calm Calm - N/A   Clear
11:37 PM 28.4 °F 24.6 °F 8.6 °F 43% 30.33 in 10.0 mi NE 3.5 mph - N/A   Clear
11:57 PM 28.4 °F - 8.6 °F 43% 30.34 in 10.0 mi Calm Calm - N/A   Clear